W4BOD Weather Reports


time (UTC)temp
F
wind
direction
speed
knots
gust
knots
rain 1hr
in
rain 24hr
in
rain mn
in
humidity
%
barometer
mb
20260901125148 78 355 0.0 0.9 0.00 0.00 0.00 95 1020.5
20260901124643 77 6 0.0 0.9 0.00 0.00 0.00 95 1020.5
20260901124143 77 6 0.0 0.0 0.00 0.00 0.00 95 1020.5
20260901123638 77 7 0.0 0.9 0.00 0.00 0.00 95 1020.5
20260901123137 76 6 0.0 0.9 0.00 0.00 0.00 95 1020.4
20260901122636 76 6 0.0 0.0 0.00 0.00 0.00 95 1020.5
20260901122131 76 6 0.0 0.9 0.00 0.00 0.00 95 1020.5
20260901121625 75 7 0.0 0.9 0.00 0.00 0.00 96 1020.3
20260901121120 75 7 0.9 0.9 0.00 0.00 0.00 96 1020.3
20260901120615 75 5 0.0 0.0 0.00 0.00 0.00 97 1020.3
20260901120110 75 4 0.0 0.9 0.00 0.00 0.00 98 1020.1
20260901115605 74 6 0.0 0.9 0.00 0.00 0.00 98 1020.2
20260901115102 74 2 0.0 0.0 0.00 0.00 0.00 98 1020.1
20260901114558 74 4 0.0 0.0 0.00 0.00 0.00 98 1019.9
20260901114057 74 3 0.0 0.9 0.00 0.00 0.00 99 1019.7
20260901113555 74 3 0.0 0.0 0.00 0.00 0.00 99 1019.7
20260901113051 74 3 0.0 0.0 0.00 0.00 0.00 99 1019.7
20260901112551 74 3 0.0 0.9 0.00 0.00 0.00 99 1019.6
20260901112046 74 2 0.0 0.0 0.00 0.00 0.00 99 1019.4
20260901111544 74 2 0.0 0.0 0.00 0.00 0.00 99 1019.2
20260901111043 74 2 0.0 0.0 0.00 0.00 0.00 99 1019.3
20260901110539 74 2 0.0 0.0 0.00 0.00 0.00 99 1019.2
20260901110035 74 2 0.0 0.0 0.00 0.00 0.00 99 1019.2
20260901105531 74 2 0.0 0.9 0.00 0.00 0.00 99 1019.1
20260901105030 74 2 0.0 0.9 0.00 0.00 0.00 99 1019.3
20260901104527 74 1 0.0 0.0 0.00 0.00 0.00 99 1019.0
20260901104022 74 1 0.0 0.0 0.00 0.00 0.00 99 1019.1
20260901103516 74 1 0.0 0.0 0.00 0.00 0.00 99 1018.9
20260901103012 75 1 0.0 0.0 0.00 0.00 0.00 99 1019.3
20260901102506 74 1 0.0 0.0 0.00 0.00 0.00 99 1019.1
20260901102000 75 2 0.0 0.0 0.00 0.00 0.00 99 1019.1
20260901101455 75 3 0.0 0.9 0.00 0.00 0.00 99 1019.0
20260901100950 75 359 0.0 0.9 0.00 0.00 0.00 99 1019.1
20260901100445 75 359 0.0 0.0 0.00 0.00 0.00 99 1019.0
20260901095944 75 359 0.0 0.0 0.00 0.00 0.00 99 1019.0
20260901095443 75 359 0.0 0.0 0.00 0.00 0.00 99 1019.0
20260901094941 75 359 0.0 0.0 0.00 0.00 0.00 99 1019.0
20260901094441 75 359 0.0 0.0 0.00 0.00 0.00 99 1018.8
20260901093941 75 359 0.0 0.0 0.00 0.00 0.00 99 1018.8
20260901093436 75 359 0.0 0.0 0.00 0.00 0.00 98 1018.9
20260901092931 75 359 0.0 0.0 0.00 0.00 0.00 98 1018.8
20260901092427 75 359 0.0 0.0 0.00 0.00 0.00 98 1018.8
20260901091922 75 359 0.0 0.0 0.00 0.00 0.00 98 1018.7
20260901091422 75 359 0.0 0.0 0.00 0.00 0.00 98 1018.7
20260901090917 75 359 0.0 0.0 0.00 0.00 0.00 98 1018.7
20260901090417 75 359 0.0 0.0 0.00 0.00 0.00 98 1018.8
20260901085913 75 359 0.0 0.0 0.00 0.00 0.00 98 1018.8
20260901085409 75 359 0.0 0.0 0.00 0.00 0.00 98 1018.6
20260901084905 75 359 0.0 0.0 0.00 0.00 0.00 98 1018.7
20260901084401 75 359 0.0 0.0 0.00 0.00 0.00 97 1018.7
20260901083855 76 359 0.0 0.0 0.00 0.00 0.00 97 1018.6
20260901083350 76 359 0.0 0.0 0.00 0.00 0.00 97 1018.4
20260901082848 76 359 0.0 0.9 0.00 0.00 0.00 97 1018.5
20260901082344 76 359 0.0 0.0 0.00 0.00 0.00 97 1018.6
20260901081838 76 359 0.0 0.0 0.00 0.00 0.00 97 1018.4
20260901081333 75 359 0.0 0.0 0.00 0.00 0.00 97 1018.5
20260901080827 76 359 0.0 0.0 0.00 0.00 0.00 97 1018.7
20260901080322 76 359 0.0 0.0 0.00 0.00 0.00 97 1018.6
20260901075816 76 359 0.0 0.0 0.00 0.00 0.00 96 1018.5
20260901075311 76 359 0.0 0.9 0.00 0.00 0.00 96 1018.5
20260901074807 76 359 0.0 0.0 0.00 0.00 0.00 96 1018.4
20260901074301 76 359 0.0 0.0 0.00 0.00 0.00 96 1018.6
20260901073756 76 359 0.0 0.0 0.00 0.00 0.00 96 1018.2
20260901073252 76 359 0.0 0.0 0.00 0.00 0.00 96 1018.2
20260901072747 76 359 0.0 0.0 0.00 0.00 0.00 96 1018.4
20260901072242 76 359 0.0 0.0 0.00 0.00 0.00 96 1018.5
20260901071736 76 359 0.0 0.0 0.00 0.00 0.00 96 1018.3
20260901071230 76 359 0.0 0.0 0.00 0.00 0.00 96 1018.4
20260901070724 76 359 0.0 0.0 0.00 0.00 0.00 96 1018.5
20260901070219 76 359 0.0 0.0 0.00 0.00 0.00 96 1018.6
20260901065719 76 359 0.0 0.0 0.00 0.00 0.00 95 1018.6
20260901065214 77 359 0.0 0.0 0.00 0.00 0.00 95 1018.5
20260901064710 77 359 0.0 0.0 0.00 0.00 0.00 95 1018.6
20260901064206 77 359 0.0 0.0 0.00 0.00 0.00 95 1018.5
20260901063703 77 359 0.0 0.0 0.00 0.00 0.00 94 1018.3
20260901063159 77 359 0.0 0.0 0.00 0.00 0.00 94 1018.7
20260901062654 77 359 0.0 0.0 0.00 0.00 0.00 94 1018.7
20260901062150 77 359 0.0 0.0 0.00 0.00 0.00 94 1018.6
20260901061646 77 359 0.0 0.0 0.00 0.00 0.00 94 1018.7
20260901061146 78 358 0.0 0.0 0.00 0.00 0.00 94 1018.6
20260901060641 78 358 0.0 0.0 0.00 0.00 0.00 94 1018.7
20260901060136 78 358 0.0 0.0 0.00 0.00 0.00 93 1018.6
20260901055632 78 4 0.0 0.9 0.00 0.00 0.00 93 1018.7
20260901055128 78 5 0.0 0.0 0.00 0.00 0.00 93 1018.8
20260901054625 78 5 0.0 0.0 0.00 0.00 0.00 93 1018.8
20260901054121 79 5 0.0 0.0 0.00 0.00 0.00 93 1018.6
20260901053617 79 5 0.9 0.9 0.00 0.00 0.00 93 1018.7
20260901053114 79 5 0.0 0.9 0.00 0.00 0.00 93 1018.6
20260901052612 78 5 0.0 0.0 0.00 0.00 0.00 92 1018.7
20260901052108 78 5 0.0 0.9 0.00 0.00 0.00 92 1018.6
20260901051607 78 5 0.0 0.0 0.00 0.00 0.00 92 1018.8
20260901051106 78 5 0.0 0.0 0.00 0.00 0.00 93 1018.7
20260901050602 78 5 0.0 0.0 0.00 0.00 0.00 93 1018.7
20260901050056 78 5 0.0 0.0 0.00 0.00 0.00 92 1018.5
20260901045552 78 5 0.0 0.0 0.00 0.00 0.00 92 1018.6
20260901045046 78 5 0.0 0.0 0.00 0.00 0.00 91 1018.6
20260901044542 78 5 0.0 0.0 0.00 0.00 0.00 91 1018.6
20260901044038 78 5 0.0 0.0 0.00 0.00 0.00 91 1018.6
20260901043533 79 5 0.0 0.0 0.00 0.00 0.00 91 1018.7
20260901043029 79 5 0.0 0.0 0.00 0.00 0.00 91 1018.4
20260901042528 79 5 0.0 0.0 0.00 0.00 0.00 91 1018.6
20260901042024 79 5 0.0 0.0 0.00 0.00 0.00 90 1018.8
20260901041519 79 5 0.0 0.0 0.00 0.00 0.00 90 1018.6
20260901041014 80 5 0.0 0.0 0.00 0.00 0.00 89 1018.5
20260901040508 80 5 0.0 0.0 0.00 0.00 0.00 89 1018.7
20260901040008 80 5 0.0 0.9 0.00 0.00 0.00 88 1018.8
20260901035506 80 5 0.0 0.0 0.00 0.00 0.00 88 1018.5
20260901035005 80 6 0.9 0.9 0.00 0.00 0.00 89 1018.7
20260901034504 80 4 0.0 0.0 0.00 0.00 0.00 89 1018.4
20260901033959 80 4 0.0 0.0 0.00 0.00 0.00 89 1018.5
20260901033458 80 4 0.0 0.0 0.00 0.00 0.00 90 1018.4
20260901032957 81 4 0.0 0.9 0.00 0.00 0.00 90 1018.4
20260901032452 81 4 0.0 0.0 0.00 0.00 0.00 89 1018.4
20260901031947 81 4 0.0 0.0 0.00 0.00 0.00 89 1018.2
20260901031443 81 4 0.0 0.0 0.00 0.00 0.00 89 1018.4
20260901030942 82 4 0.0 0.0 0.00 0.00 0.00 88 1018.4
20260901030438 82 4 0.0 0.0 0.00 0.00 0.00 87 1018.5
20260901025937 82 4 0.0 0.0 0.00 0.00 0.00 87 1018.5
20260901025432 82 4 0.0 0.0 0.00 0.00 0.00 86 1018.3
20260901024931 82 4 0.0 0.0 0.00 0.00 0.00 86 1018.4
20260901024426 82 4 0.0 0.0 0.00 0.00 0.00 86 1018.2
20260901023924 82 4 0.0 0.0 0.00 0.00 0.00 86 1018.3
20260901023419 82 4 0.0 0.0 0.00 0.00 0.00 85 1018.2
20260901022914 82 4 0.0 0.0 0.00 0.00 0.00 84 1018.1
20260901022410 82 4 0.0 0.0 0.00 0.00 0.00 84 1018.1
20260901021905 83 4 0.0 0.0 0.00 0.00 0.00 83 1018.0
20260901021401 83 4 0.0 0.0 0.00 0.00 0.00 82 1018.0
20260901020855 83 4 0.0 0.0 0.00 0.00 0.00 82 1017.9
20260901020351 83 4 0.0 0.0 0.00 0.00 0.00 82 1017.8
20260901015850 83 4 0.0 0.0 0.00 0.00 0.00 81 1017.8
20260901015347 83 4 0.0 0.0 0.00 0.00 0.00 81 1017.8
20260901014846 84 4 0.0 0.0 0.00 0.00 0.00 80 1018.1
20260901014342 84 4 0.0 0.0 0.00 0.00 0.00 79 1018.0
20260901013837 84 4 0.0 0.0 0.00 0.00 0.00 78 1017.7
20260901013333 84 4 0.0 0.0 0.00 0.00 0.00 78 1017.6
20260901012828 84 4 0.0 0.0 0.00 0.00 0.00 78 1017.7
20260901012323 84 4 0.0 0.0 0.00 0.00 0.00 76 1017.4
20260901011819 84 4 0.0 0.0 0.00 0.00 0.00 75 1017.5
20260901011314 84 4 0.0 0.0 0.00 0.00 0.00 74 1017.6
20260901010808 84 4 0.0 0.0 0.00 0.00 0.00 74 1017.4
20260901010302 84 4 0.0 0.0 0.00 0.00 0.00 74 1017.5
20260901005801 85 4 0.0 0.0 0.00 0.00 0.00 74 1017.3
20260901005256 85 4 0.0 0.0 0.00 0.00 0.00 74 1017.4
20260901004750 85 4 0.0 0.0 0.00 0.00 0.00 72 1017.3
20260901004245 86 4 0.0 0.0 0.00 0.00 0.00 71 1017.2
20260901003745 86 4 0.0 0.0 0.00 0.00 0.00 70 1017.6
20260901003239 86 4 0.0 0.0 0.00 0.00 0.00 71 1017.4
20260901002733 87 4 0.0 0.0 0.00 0.00 0.00 71 1017.2
20260901002228 87 4 0.0 0.0 0.00 0.00 0.00 70 1017.5
20260901001723 88 4 0.0 0.0 0.00 0.00 0.00 69 1017.3
20260901001219 88 4 0.0 0.0 0.00 0.00 0.00 67 1017.4
20260901000714 89 4 0.0 0.0 0.00 0.00 0.00 68 1017.6
20260901000211 89 4 0.0 0.0 0.00 0.00 0.00 67 1017.3
20260831235702 90 4 0.0 0.0 0.00 0.00 0.00 65 1017.4
20260831235158 90 4 0.0 0.0 0.00 0.00 0.00 67 1017.3
20260831234658 91 4 0.0 0.0 0.00 0.00 0.00 65 1017.4
20260831234153 91 4 0.0 0.0 0.00 0.00 0.00 66 1017.4
20260831233648 92 4 0.0 0.0 0.00 0.00 0.00 63 1017.4
20260831233143 93 4 0.0 0.0 0.00 0.00 0.00 63 1017.6
20260831232638 94 4 0.0 0.0 0.00 0.00 0.00 59 1017.6
20260831232134 95 4 0.0 0.0 0.00 0.00 0.00 59 1017.5
20260831231630 95 4 0.0 0.0 0.00 0.00 0.00 58 1017.6
20260831231126 95 4 0.0 0.0 0.00 0.00 0.00 54 1017.7
20260831230621 96 4 0.0 0.0 0.00 0.00 0.00 54 1017.9
20260831230121 96 4 0.0 0.9 0.00 0.00 0.00 51 1017.4
20260831225610 96 5 0.0 0.9 0.00 0.00 0.00 52 1017.9
20260831225105 97 2 0.0 0.0 0.00 0.00 0.00 51 1017.8
20260831224600 97 10 0.0 0.9 0.00 0.00 0.00 51 1017.6
20260831224055 97 6 0.0 0.0 0.00 0.00 0.00 49 1017.9
20260831223551 96 6 0.0 0.9 0.00 0.00 0.00 49 1017.9
20260831223047 97 0 0.0 0.9 0.00 0.00 0.00 49 1017.9
20260831222543 97 34 1.7 1.7 0.00 0.00 0.00 48 1017.9
20260831222042 98 342 0.0 0.9 0.00 0.00 0.00 48 1017.9
20260831221538 99 311 0.9 0.9 0.00 0.00 0.00 50 1017.7
20260831221033 99 330 0.0 0.0 0.00 0.00 0.00 49 1017.7
20260831220528 98 316 0.0 0.9 0.00 0.00 0.00 49 1017.7
20260831220024 98 290 0.9 1.7 0.00 0.00 0.00 51 1017.9
20260831215519 97 355 0.0 0.9 0.00 0.00 0.00 49 1017.9
20260831215015 97 287 0.9 1.7 0.00 0.00 0.00 51 1017.8
20260831214513 97 182 1.7 1.7 0.00 0.00 0.00 51 1018.0
20260831214008 97 284 0.9 1.7 0.00 0.00 0.00 50 1017.9
20260831213504 98 289 1.7 2.6 0.00 0.00 0.00 50 1018.0
20260831212959 98 303 0.0 1.7 0.00 0.00 0.00 49 1017.8
20260831212455 98 352 0.0 0.0 0.00 0.00 0.00 48 1018.0
20260831211955 97 252 0.9 1.7 0.00 0.00 0.00 50 1018.1
20260831211450 98 233 0.0 0.9 0.00 0.00 0.00 48 1018.2
20260831210949 98 286 1.7 1.7 0.00 0.00 0.00 49 1018.3
20260831210444 98 297 0.9 1.7 0.00 0.00 0.00 48 1018.4
20260831205940 98 352 0.9 0.9 0.00 0.00 0.00 49 1018.5
20260831205436 97 275 1.7 1.7 0.00 0.00 0.00 50 1018.4
20260831204931 98 287 1.7 1.7 0.00 0.00 0.00 47 1018.3
20260831204431 98 322 0.0 0.9 0.00 0.00 0.00 49 1018.4
20260831203930 98 302 0.9 1.7 0.00 0.00 0.00 49 1018.7
20260831203424 97 12 0.9 1.7 0.00 0.00 0.00 50 1018.4
20260831202922 96 334 0.0 1.7 0.00 0.00 0.00 52 1018.5
20260831202418 98 317 0.0 1.7 0.00 0.00 0.00 51 1018.5
20260831201912 98 292 0.9 1.7 0.00 0.00 0.00 51 1018.7
20260831201411 98 316 0.0 1.7 0.00 0.00 0.00 50 1018.5
20260831200907 98 304 0.0 0.9 0.00 0.00 0.00 49 1018.8
20260831200402 98 352 0.9 1.7 0.00 0.00 0.00 50 1018.7
20260831195856 97 17 1.7 2.6 0.00 0.00 0.00 51 1018.8
20260831195352 97 333 0.9 1.7 0.00 0.00 0.00 52 1018.9
20260831194847 98 343 1.7 1.7 0.00 0.00 0.00 51 1019.0
20260831194343 98 339 0.0 0.9 0.00 0.00 0.00 52 1019.0
20260831193842 96 291 0.9 2.6 0.00 0.00 0.00 57 1019.2
20260831193337 99 287 0.9 0.9 0.00 0.00 0.00 52 1018.9
20260831192832 97 324 0.0 0.9 0.00 0.00 0.00 50 1019.1
20260831192332 95 323 1.7 4.3 0.00 0.00 0.00 54 1019.4
20260831191828 98 295 0.9 1.7 0.00 0.00 0.00 52 1019.4
20260831191324 97 352 0.9 1.7 0.00 0.00 0.00 52 1019.2
20260831190819 95 327 0.0 1.7 0.00 0.00 0.00 55 1019.3
20260831190314 97 279 2.6 4.3 0.00 0.00 0.00 51 1019.2
20260831185814 96 325 0.9 4.3 0.00 0.00 0.00 56 1019.6
20260831185309 96 336 0.9 1.7 0.00 0.00 0.00 53 1019.3
20260831184808 97 276 2.6 2.6 0.00 0.00 0.00 54 1019.3
20260831184304 98 321 0.0 0.9 0.00 0.00 0.00 53 1019.4
20260831183759 96 327 0.9 0.9 0.00 0.00 0.00 55 1019.7
20260831183258 95 279 1.7 4.3 0.00 0.00 0.00 55 1019.8
20260831182758 95 354 0.0 2.6 0.00 0.00 0.00 57 1020.0
20260831182253 95 244 2.6 2.6 0.00 0.00 0.00 54 1019.9
20260831181748 95 277 2.6 2.6 0.00 0.00 0.00 56 1019.7
20260831181243 96 293 3.5 5.2 0.00 0.00 0.00 53 1019.8
20260831180743 95 301 0.9 2.6 0.00 0.00 0.00 56 1020.0
20260831180238 96 332 0.9 4.3 0.00 0.00 0.00 56 1020.0
20260831175737 95 332 0.9 4.3 0.00 0.00 0.00 56 1020.3
20260831175234 94 354 1.7 4.3 0.00 0.00 0.00 56 1020.1
20260831174729 95 336 0.9 2.6 0.00 0.00 0.00 55 1020.3
20260831174225 93 268 2.6 4.3 0.00 0.00 0.00 60 1020.6
20260831173724 94 247 0.9 2.6 0.00 0.00 0.00 61 1020.4
20260831173218 93 323 0.0 4.3 0.00 0.00 0.00 60 1020.5
20260831172713 95 248 4.3 7.0 0.00 0.00 0.00 58 1020.8
20260831172208 93 345 0.0 1.7 0.00 0.00 0.00 59 1020.6
20260831171703 93 254 4.3 5.2 0.00 0.00 0.00 60 1020.6
20260831171201 92 295 1.7 4.3 0.00 0.00 0.00 63 1020.7
20260831170656 93 219 3.5 6.1 0.00 0.00 0.00 64 1020.8
20260831170153 93 268 1.7 1.7 0.00 0.00 0.00 62 1020.7
20260831165649 92 274 2.6 4.3 0.00 0.00 0.00 61 1020.9
20260831165145 93 329 0.9 2.6 0.00 0.00 0.00 64 1021.0
20260831164641 94 270 1.7 1.7 0.00 0.00 0.00 62 1020.8
20260831164136 93 319 1.7 4.3 0.00 0.00 0.00 65 1021.0
20260831163631 94 31 0.9 1.7 0.00 0.00 0.00 62 1021.2
20260831163127 93 325 0.9 0.9 0.00 0.00 0.00 64 1021.0
20260831162626 91 319 0.0 1.7 0.00 0.00 0.00 67 1021.0
20260831162124 91 347 0.9 2.6 0.00 0.00 0.00 66 1021.1
20260831161620 92 292 0.9 1.7 0.00 0.00 0.00 64 1021.1
20260831161117 91 314 0.0 4.3 0.00 0.00 0.00 67 1021.2
20260831160615 90 296 0.9 1.7 0.00 0.00 0.00 68 1021.1
20260831160111 91 286 1.7 4.3 0.00 0.00 0.00 69 1021.1
20260831155605 91 227 2.6 4.3 0.00 0.00 0.00 68 1021.3
20260831155101 90 259 1.7 2.6 0.00 0.00 0.00 69 1021.0
20260831154557 91 261 2.6 4.3 0.00 0.00 0.00 69 1021.3
20260831154056 91 290 1.7 1.7 0.00 0.00 0.00 70 1021.3
20260831153555 89 317 0.9 1.7 0.00 0.00 0.00 72 1021.3
20260831153053 89 320 0.0 0.9 0.00 0.00 0.00 70 1021.3
20260831152548 90 215 1.7 1.7 0.00 0.00 0.00 72 1021.4
20260831152044 89 323 0.9 2.6 0.00 0.00 0.00 71 1021.5
20260831151543 88 353 0.9 0.9 0.00 0.00 0.00 74 1021.2
20260831151037 88 18 0.0 1.7 0.00 0.00 0.00 75 1021.2
20260831150532 87 6 0.0 0.9 0.00 0.00 0.00 75 1021.2
20260831150028 87 332 0.9 1.7 0.00 0.00 0.00 77 1021.3
20260831145523 86 12 0.0 1.7 0.00 0.00 0.00 78 1021.2
20260831145019 86 22 1.7 1.7 0.00 0.00 0.00 78 1021.1
20260831144514 85 338 0.9 1.7 0.00 0.00 0.00 79 1021.0
20260831144010 85 354 0.0 0.9 0.00 0.00 0.00 78 1020.8
20260831143504 84 350 0.0 0.9 0.00 0.00 0.00 80 1020.9
20260831143000 84 348 0.0 0.9 0.00 0.00 0.00 81 1020.9
20260831142456 84 28 1.7 1.7 0.00 0.00 0.00 81 1020.9
20260831141955 83 342 0.0 0.0 0.00 0.00 0.00 82 1020.8
20260831141449 83 3 0.0 0.0 0.00 0.00 0.00 83 1020.7
20260831140944 82 331 0.0 0.9 0.00 0.00 0.00 83 1020.8
20260831140439 82 358 0.0 0.9 0.00 0.00 0.00 82 1020.7
20260831135938 82 357 0.0 0.9 0.00 0.00 0.00 83 1020.8
20260831135437 82 3 0.0 0.9 0.00 0.00 0.00 84 1020.8
20260831134932 81 11 0.9 0.9 0.00 0.00 0.00 85 1020.5
20260831134429 80 359 0.9 0.9 0.00 0.00 0.00 87 1020.8
20260831133929 80 327 0.9 0.9 0.00 0.00 0.00 87 1020.8
20260831133429 80 334 0.0 1.7 0.00 0.00 0.00 87 1020.7
20260831132924 79 340 0.0 0.0 0.00 0.00 0.00 87 1020.6
20260831132420 79 338 0.0 1.7 0.00 0.00 0.00 88 1020.7
20260831131919 79 354 0.0 0.0 0.00 0.00 0.00 88 1020.7
20260831131414 79 307 0.9 0.9 0.00 0.00 0.00 88 1020.6
20260831130910 79 332 0.0 1.7 0.00 0.00 0.00 89 1020.4
20260831130405 78 4 0.0 0.0 0.00 0.00 0.00 89 1020.5
20260831125904 78 4 0.0 0.9 0.00 0.00 0.00 90 1020.7